Location: North Schodack
(42.5845°N, 73.5982°W)
Time: 12:59:00
(UTC+00:00)

Daily predictions for brighter satellites

Satellite Brightness Start Highest point End
(mag) Time Altitude Azimuth Time Altitude Azimuth Time Altitude Azimuth
USA 234 3.6 21:40:00 10° NE 21:46:26 57° SE 21:52:50 10° SSW
Cosmos 2279 Rocket 4.1 21:42:13 10° N 21:48:20 54° ENE 21:54:22 10° SSE
Cosmos 1437 Rocket 2.9 21:45:45 10° N 21:49:20 45° ENE 21:52:56 10° SSE
Aureole 3 Rocket 2.9 21:50:05 10° N 21:54:49 89° W 21:58:20 10° S
Cosmos 1825 Rocket 4.2 21:50:53 10° NNW 21:55:09 60° W 21:59:23 10° S
CZ-2C R/B 2.5 21:52:01 10° SSE 21:55:30 61° ENE 21:59:03 10° N
USA 305 4.3 21:56:58 10° NNW 21:59:43 18° NNE 22:02:29 10° ENE
CZ-2C R/B 2.8 21:58:15 10° SW 21:59:46 15° S 22:01:16 10° SE
SL-8 R/B 4.2 21:56:27 10° WNW 22:01:01 43° N 22:05:35 10° E
SJ-11-01 4.4 21:56:28 10° SSE 22:01:07 83° W 22:05:47 10° NNW
Cosmos 2151 3.0 21:57:08 10° N 22:01:22 62° E 22:05:34 10° SSE
Cosmos 1812 4.1 21:59:51 10° SE 22:02:26 18° E 22:05:02 10° NE
Helios 1B rocket 2.7 21:59:28 10° S 22:03:22 70° WSW 22:07:19 10° NNW
Cosmos 2292 Rocket 4.5 21:59:29 10° S 22:04:53 86° E 22:11:59 10° N
Cosmos 1238 Rocket 4.4 22:02:13 10° SSW 22:05:50 34° W 22:09:00 10° NNW
CZ-4B R/B 3.8 22:02:35 10° SE 22:06:01 45° ENE 22:09:29 10° N
Nadezhda 4 Rocket 4.5 22:00:30 10° SSE 22:06:05 38° E 22:11:39 10° NNE
NOSS 8 (A) 4.5 22:04:31 10° SSW 22:08:42 87° ESE 22:11:53 10° NE
BREEZE-M DEB (TANK) 1.8 22:07:34 10° W 22:09:29 37° NNW 22:11:08 13° NE
Cosmos 2263 Rocket 2.2 22:04:56 10° SSW 22:10:25 66° ESE 22:15:57 10° NNE
Cosmos 1844 Rocket 4.3 22:10:01 10° ESE 22:12:24 13° E 22:14:03 11° ENE
Meteor 1-31 Rocket 2.7 22:09:16 10° SSE 22:12:52 56° ENE 22:16:30 10° N
Cosmos 2227 Rocket 3.4 22:08:16 10° SW 22:13:35 41° WNW 22:18:56 10° NNE
Cosmos 1544 3.0 22:14:19 10° NNW 22:17:33 74° W 22:20:47 10° S
Radarsat 4.5 22:14:32 10° SSE 22:19:42 74° ENE 22:24:54 10° N
CORIOLIS 4.1 22:14:32 10° SSE 22:19:52 81° ENE 22:25:16 10° NNW
Lacrosse 4 Rocket 2.7 22:17:01 10° N 22:20:24 22° NE 22:22:58 13° E
Tiangong 0.0 22:18:21 10° W 22:21:05 26° SSW 22:23:47 10° SE
CZ-4B R/B 3.8 22:16:28 10° SE 22:21:16 43° ENE 22:25:58 10° N
ERS-2 4.4 22:19:34 10° SSW 22:21:58 23° W 22:24:23 10° NW
Cosmos 1782 4.3 22:20:11 10° SE 22:22:43 17° E 22:23:22 16° ENE
Cosmos 2251 Rocket 4.4 22:19:34 10° N 22:24:06 27° ENE 22:28:37 10° ESE
Cosmos 407 Rocket 4.4 22:23:35 10° N 22:27:54 26° ENE 22:32:10 10° ESE
USA 308 1.8 22:26:50 10° WNW 22:28:43 43° SW 22:29:56 14° SSE
Cosmos 2344 3.8 22:22:38 10° S 22:30:07 48° ESE 22:36:11 14° NE
USA 307 3.5 22:34:02 10° NW 22:37:31 31° NNE 22:38:51 24° ENE
Cosmos 1076 Rocket 4.1 22:33:56 10° NNW 22:38:14 62° W 22:42:31 10° S
Cosmos 1812 Rocket 3.8 22:35:20 10° SSE 22:39:27 46° E 22:43:37 10° NNE
Cosmos 1818 4.2 22:34:33 10° S 22:39:27 36° ESE 22:42:24 21° ENE
SL-16 R/B 3.0 22:34:34 10° NNW 22:40:06 54° WSW 22:45:34 10° S
ATLAS CENTAUR R/B 3.0 22:37:42 10° NW 22:42:08 51° NE 22:50:37 10° ESE
Cosmos 1602 3.5 22:39:46 10° N 22:43:30 84° E 22:47:14 10° S
ISS -3.6 22:42:46 10° NW 22:46:04 54° NNE 22:47:13 34° E
Cosmos 1666 2.8 22:42:43 10° NNW 22:46:14 69° W 22:49:43 10° S
Meteor 2-2 Rocket 4.4 22:42:56 10° S 22:48:28 53° E 22:54:07 10° NNE
ATLAS 2AS CENTAUR R/B 3.7 22:45:11 10° NNW 22:50:45 25° NNE 22:52:39 22° ENE
SL-08 R/B 3.6 22:50:45 20° NE 22:53:34 43° E 22:57:58 10° S
Cosmos 1943 3.2 22:48:24 10° NNW 22:54:00 60° ENE 22:59:34 10° SE
Cosmos 44 3.8 22:50:04 10° NW 22:55:24 69° WSW 23:00:28 10° SSE
ADEOS 3.7 22:53:27 10° SE 22:58:27 49° ENE 23:03:27 10° N
USA 306 3.9 23:00:50 10° NW 23:01:21 15° NW 23:01:21 15° NW
Cosmos 1023 Rocket 4.3 23:01:00 10° NNW 23:06:11 79° ENE 23:11:16 10° SSE
COSMO-SKYMED 1 2.5 23:03:34 13° NNE 23:07:23 86° E 23:11:44 10° SSW
Cosmos 1933 3.3 23:08:14 10° S 23:12:08 56° E 23:12:17 55° E
USA 276 3.2 23:09:56 10° W 23:11:36 30° WNW 23:11:36 30° WNW
Helios 1A 3.9 23:10:17 10° N 23:14:17 48° WNW 23:18:16 10° SW
Cosmos 1844 4.1 23:09:18 10° S 23:14:37 39° ESE 23:15:14 38° E
Meteor 1-25 Rocket 4.1 23:09:30 10° N 23:15:13 87° E 23:20:48 10° S
Cosmos 1420 Rocket 4.4 23:12:26 10° S 23:17:14 40° ESE 23:17:14 40° ESE
Radarsat Rocket 4.0 23:14:29 10° SSE 23:20:19 80° WSW 23:26:18 10° NNW
Lacrosse 5 2.1 23:17:22 10° SSW 23:22:12 49° SE 23:22:38 47° ESE
Cosmos 1553 Rocket 4.3 23:18:56 10° N 23:32:20 - SSE 23:24:53 42° ENE
Cosmos-2242 4.3 23:22:49 10° SSW 23:26:54 40° WNW 23:31:00 10° N
Meteor 1-26 Rocket 4.2 23:22:30 10° S 23:27:50 56° E 23:28:49 49° ENE
USA 234 3.8 23:25:42 25° NNE 23:29:22 50° NNW 23:35:37 10° WSW
Cosmos 1140 Rocket 3.8 23:27:24 10° NNW 23:32:32 64° WSW 23:37:35 10° S
Cosmos 2026 Rocket 4.0 23:28:00 10° S 23:34:13 86° W 23:40:35 10° N
USA 305 3.7 23:31:23 10° NW 23:33:52 36° NNW 23:33:52 36° NNW
Cosmos 2221 3.9 23:32:47 10° S 23:34:42 26° S 23:34:42 26° S
SL-8 R/B 3.6 23:39:00 10° WNW 23:43:40 84° W 23:43:40 84° W
Cosmos 1092 Rocket 4.3 23:41:49 10° SSW 23:47:54 65° W 23:54:01 10° N
Cosmos 2263 Rocket 4.3 23:50:43 10° W 23:54:50 21° NW 23:58:59 10° N
